Weather History for Lawrenceville, IL

Change the Weather History Date:

Saturday, September 28, 2013

  Actual Average Record
Temperature  
Mean Temperature 70 °F 64 °F  
Max Temperature 86 °F 77 °F 93 °F (1999)
Min Temperature 54 °F 52 °F 38 °F (1991)
Degree Days  
Heating Degree Days 0 4  
Month to date heating degree days 11 29  
Since 1 July heating degree days 16 30  
Cooling Degree Days 5 3  
Month to date cooling degree days 185 165  
Year to date cooling degree days 1240 1348  
Growing Degree Days 20 (Base 50)    
Moisture  
Dew Point 55 °F    
Average Humidity 63    
Maximum Humidity 93    
Minimum Humidity 32    
Precipitation  
Precipitation 0.00 in 0.12 in 0.41 in (2005)
Month to date precipitation 0.58 2.92  
Year to date precipitation 42.22 32.27  
Sea Level Pressure  
Sea Level Pressure 30.07 in    
Wind  
Wind Speed 9 mph (SSE)    
Max Wind Speed 21 mph    
Max Gust Speed 30 mph    
Visibility 8 miles    
Events      
T = Trace of Precipitation, MM = Missing Value Source: NWS Daily Summary

Daily Weather History Graph

Daily Weather History Graph

Search for Another Location

Airport:

Trip Planner

Search our weather history database for the weather conditions in past years. The results will help you decide how hot, cold, wet, or windy it might be!

Date:

Astronomy

Sep. 28, 2013 Rise Set
Actual Time 6:43 AM CDT 6:37 PM CDT
Civil Twilight 6:17 AM CDT 7:03 PM CDT
Nautical Twilight 5:46 AM CDT 7:34 PM CDT
Astronomical Twilight 5:15 AM CDT 8:05 PM CDT
Moon 12:34 AM CDT (9/28) 2:53 PM CDT (9/28)
Length of Visible Light 12h 46m
Length of Day
11h 53m
Waning Crescent, 36% of the Moon is Illuminated
Sep 28
Waning Crescent
Oct 4
New
Oct 11
First Quarter
Oct 18
Full
Oct 26
Last Quarter

Hourly Weather History & Observations

Time (CDT) Temp. Heat Index Dew Point Humidity Pressure Visibility Wind Dir Wind Speed Gust Speed Precip Events Conditions
12:53 AM 57.0 °F - 53.1 °F 87% 30.08 in 8.0 mi East 8.1 mph - N/A   Clear
1:53 AM 57.9 °F - 53.1 °F 84% 30.08 in 8.0 mi East 3.5 mph - N/A   Clear
2:53 AM 57.0 °F - 53.1 °F 87% 30.07 in 7.0 mi East 5.8 mph - N/A   Clear
3:53 AM 55.9 °F - 53.1 °F 90% 30.08 in 7.0 mi East 3.5 mph - N/A   Clear
4:53 AM 55.9 °F - 53.1 °F 90% 30.09 in 7.0 mi East 5.8 mph - N/A   Clear
5:53 AM 55.0 °F - 53.1 °F 93% 30.10 in 6.0 mi East 4.6 mph - N/A   Scattered Clouds
6:53 AM 55.9 °F - 54.0 °F 93% 30.12 in 5.0 mi East 5.8 mph - N/A   Scattered Clouds
7:53 AM 60.1 °F - 57.0 °F 90% 30.12 in 5.0 mi East 3.5 mph - N/A   Clear
8:53 AM 66.9 °F - 60.1 °F 79% 30.14 in 6.0 mi South 5.8 mph - N/A   Haze
9:53 AM 73.0 °F - 60.1 °F 64% 30.13 in 8.0 mi South 9.2 mph - N/A   Clear
10:53 AM 78.1 °F - 61.0 °F 56% 30.12 in 8.0 mi SSW 6.9 mph - N/A   Clear
11:53 AM 82.0 °F 82.1 °F 59.0 °F 45% 30.10 in 8.0 mi SW 13.8 mph - N/A   Clear
12:53 PM 86.0 °F 84.2 °F 54.0 °F 33% 30.08 in 9.0 mi SSW 16.1 mph 26.5 mph N/A   Overcast
1:53 PM 84.0 °F 82.9 °F 55.0 °F 37% 30.06 in 9.0 mi South 16.1 mph - N/A   Scattered Clouds
2:53 PM 84.0 °F 82.6 °F 54.0 °F 35% 30.04 in 9.0 mi South 15.0 mph - N/A   Clear
3:53 PM 84.0 °F 82.5 °F 53.1 °F 34% 30.03 in 10.0 mi South 17.3 mph 24.2 mph N/A   Partly Cloudy
4:53 PM 82.0 °F 81.2 °F 53.1 °F 37% 30.02 in 9.0 mi South 16.1 mph - N/A   Clear
5:53 PM 79.0 °F - 54.0 °F 42% 30.03 in 9.0 mi South 12.7 mph - N/A   Clear
6:53 PM 68.0 °F - 55.9 °F 65% 30.04 in 9.0 mi South 6.9 mph - N/A   Clear
7:53 PM 64.0 °F - 55.0 °F 73% 30.03 in 9.0 mi South 9.2 mph - N/A   Clear
8:53 PM 64.0 °F - 55.9 °F 75% 30.04 in 9.0 mi South 9.2 mph - N/A   Clear
9:53 PM 64.9 °F - 55.9 °F 73% 30.03 in 9.0 mi South 9.2 mph - N/A   Clear
10:53 PM 63.0 °F - 55.9 °F 78% 30.02 in 9.0 mi South 8.1 mph - N/A   Clear
11:53 PM 61.0 °F - 55.9 °F 83% 30.03 in 9.0 mi South 6.9 mph - N/A   Clear